Lapse_Rate
6.2 6.2 6.2 6.3 6.3 6.3 6.4 6.6 6.7 6.8 6.9 6.9 7.1 7.0 7.0 6.8 6.6 6.6 6.6 6.6 6.7 6.6 6.6 6.7 6.5 6.5 6.4 6.5 6.5 6.5 6.6 6.5 6.5 6.5 6.4 6.4 6.4 6.4 6.4 6.4 6.4 6.3 6.2 6.1 5.9 5.8 5.8
6.4 6.4 6.3 6.4 6.6 6.6 6.7 6.8 6.7 6.8 6.9 7.0 7.0 7.0 7.0 6.7 6.6 6.6 6.6 6.6 6.6 6.8 6.7 6.7 6.6 6.4 6.5 6.6 6.6 6.5 6.6 6.5 6.4 6.4 6.4 6.4 6.4 6.4 6.4 6.3 6.2 6.2 6.1 6.1 6.0 5.7 5.5
6.2 6.5 6.6 6.5 6.6 6.8 6.9 7.0 7.0 7.0 7.1 7.2 7.0 6.9 6.9 6.7 6.6 6.6 6.7 6.6 6.6 6.7 6.7 6.7 6.7 6.6 6.5 6.6 6.7 6.7 6.7 6.6 6.5 6.5 6.5 6.5 6.4 6.3 6.2 6.3 6.1 5.9 6.0 5.9 5.9 5.8 5.7
6.4 6.3 6.5 6.7 6.7 6.7 6.9 7.0 7.0 7.1 7.1 7.1 7.1 7.0 6.9 6.8 6.8 6.6 6.7 6.8 6.7 6.7 6.8 6.8 6.8 6.7 6.6 6.6 6.7 6.8 6.7 6.6 6.5 6.5 6.5 6.5 6.4 6.3 6.1 6.1 6.1 5.9 5.9 5.9 5.9 5.9 5.7
6.6 6.6 6.4 6.6 6.8 6.8 6.8 6.9 7.1 7.1 7.1 7.1 7.0 7.0 6.9 6.8 6.8 6.7 6.7 6.8 6.9 6.9 6.8 6.9 6.8 6.7 6.6 6.6 6.6 6.5 6.6 6.6 6.6 6.6 6.6 6.4 6.3 6.3 6.2 6.1 5.8 5.8 5.8 5.9 5.8 5.8 5.7
5.7 6.6 6.7 6.6 6.7 6.8 6.8 7.0 7.1 7.2 7.2 7.1 7.0 7.0 7.0 6.8 6.8 6.8 6.8 6.9 6.9 6.9 7.0 6.9 6.9 6.7 6.5 6.5 6.4 6.4 6.5 6.5 6.5 6.5 6.4 6.3 6.2 6.1 6.1 6.1 6.1 6.0 5.7 5.6 5.7 6.0 5.9
6.0 5.7 6.3 6.7 6.8 6.9 6.8 6.8 6.9 7.0 7.1 7.1 7.1 7.0 7.0 7.0 6.9 6.8 6.8 6.8 6.9 7.1 7.1 7.0 6.8 6.6 6.4 6.4 6.3 6.2 6.2 6.3 6.3 6.2 6.1 6.0 6.1 6.2 6.0 5.9 5.8 5.7 5.9 5.6 5.6 5.7 5.7
6.2 6.0 6.0 6.2 6.8 6.9 6.9 6.9 6.8 6.8 7.0 7.1 7.2 7.0 7.1 7.1 7.0 6.9 6.7 6.7 6.8 6.8 7.0 6.9 6.8 6.6 6.3 6.0 5.9 6.0 6.0 6.1 6.1 6.0 5.9 5.9 6.1 6.0 5.9 5.8 5.7 5.7 5.7 5.8 5.7 5.6 5.5
6.6 6.3 6.1 6.1 6.3 6.6 6.7 6.7 6.9 6.8 6.9 7.1 7.1 7.1 7.1 7.1 7.0 6.8 6.7 6.6 6.7 6.8 6.5 6.6 6.5 6.3 6.1 5.8 5.6 5.6 5.7 5.7 5.7 5.7 5.7 5.8 5.9 5.8 5.7 5.7 5.7 5.7 5.8 5.8 5.7 5.6 5.3
5.8 6.4 6.3 5.8 6.2 6.3 6.5 6.5 6.4 6.5 6.6 7.0 7.0 7.1 7.1 7.0 7.0 6.7 6.7 6.7 6.8 6.6 6.3 6.6 6.3 6.2 6.0 5.8 5.5 5.5 5.5 5.5 5.6 5.6 5.7 5.7 5.8 5.8 5.9 5.9 5.8 5.9 6.0 5.7 5.5 5.2 5.0
4.7 5.3 6.1 5.9 6.1 6.0 6.3 6.4 6.5 6.3 6.4 6.4 6.8 7.0 7.0 7.0 6.8 6.7 6.6 6.6 6.5 6.4 3.8 6.1 6.0 6.1 6.1 5.9 5.8 5.8 5.8 5.8 5.8 5.9 5.9 6.1 6.0 5.9 5.9 5.9 5.9 5.9 5.7 5.4 5.2 5.0 4.8
4.7 4.7 5.2 5.6 6.0 5.9 5.9 6.1 6.2 6.4 6.1 6.2 6.4 6.9 6.9 6.8 6.7 6.7 6.7 6.6 6.4 6.2 5.9 6.3 6.2 6.2 6.1 6.1 5.9 5.9 6.0 5.9 5.9 5.9 5.9 5.9 5.9 5.9 5.9 5.9 5.8 5.7 5.5 5.4 5.1 4.7 3.3
4.3 4.6 4.9 4.9 5.6 6.1 6.0 5.6 5.6 6.0 6.1 5.9 5.7 6.0 6.5 6.6 6.7 6.6 6.5 6.3 6.0 5.8 6.7 6.4 6.5 6.5 6.4 6.1 6.1 6.1 6.0 6.0 6.0 5.8 6.0 5.9 5.9 5.9 5.8 5.7 5.6 5.5 5.3 5.2 3.6 3.1 3.4
4.5 4.5 4.9 5.2 5.0 5.6 5.7 6.0 5.5 5.6 5.8 5.9 5.7 5.5 5.7 6.2 6.4 6.5 6.4 5.9 5.5 6.4 7.0 6.7 6.7 6.5 6.4 6.2 6.2 6.2 6.1 6.0 5.9 5.9 5.9 5.8 5.7 5.6 5.5 5.3 5.4 5.3 5.3 5.5 4.7 3.2 3.5
4.7 4.8 4.7 4.9 4.8 5.0 5.3 5.6 5.7 5.5 5.5 5.7 5.9 5.8 5.6 5.6 5.8 6.0 6.0 5.6 6.0 6.6 6.9 6.9 6.7 6.5 6.3 6.3 6.0 6.1 6.0 5.9 6.0 5.8 5.6 5.7 5.3 5.4 5.3 5.2 5.1 4.9 5.1 5.2 4.8 4.3 2.9
4.8 4.6 4.6 4.7 5.0 5.0 4.5 5.2 5.5 5.4 5.4 5.4 5.5 5.8 5.8 5.6 5.6 5.5 5.3 5.7 6.0 6.4 6.7 6.8 6.6 6.4 6.3 6.5 6.2 5.9 6.0 6.0 6.0 5.9 5.7 5.6 5.4 5.5 5.5 5.3 5.3 5.3 5.1 5.0 5.0 3.8 3.3
4.9 4.6 4.4 4.2 4.8 4.8 5.2 5.2 4.9 5.2 5.2 5.3 5.4 5.6 5.8 5.6 5.5 5.2 4.8 5.5 6.2 6.4 6.5 6.5 6.5 6.4 6.4 6.3 6.1 6.2 6.0 6.0 6.0 6.0 5.8 5.7 5.4 5.1 5.3 5.3 5.4 5.1 4.8 4.8 5.1 5.1 3.0
5.3 5.2 4.9 4.7 4.7 4.4 5.1 5.1 5.2 5.0 5.2 5.1 5.0 5.3 5.3 5.4 5.3 4.9 5.1 5.7 5.8 6.2 6.3 6.2 6.2 6.2 6.3 6.3 6.0 5.9 5.9 6.1 5.9 5.8 5.7 5.6 4.9 5.0 5.1 5.2 5.1 5.1 4.9 5.1 5.1 4.7 4.6
5.7 5.8 5.6 5.3 5.1 4.7 4.6 5.1 5.1 4.8 4.9 4.9 5.0 5.0 5.1 5.4 5.3 5.1 5.2 5.5 5.7 5.9 6.0 5.8 6.0 6.1 6.1 6.0 5.7 5.6 5.7 5.8 5.7 5.7 5.4 5.4 4.6 4.7 4.4 4.7 4.6 4.6 5.0 4.8 5.1 5.0 4.7
6.5 6.3 6.2 6.0 5.8 5.4 5.2 5.6 5.4 5.4 4.5 5.0 4.9 4.8 5.0 4.9 5.1 5.3 5.1 5.2 5.5 5.8 5.9 5.8 5.8 5.7 5.7 5.7 5.8 5.5 5.5 5.6 5.6 5.6 5.3 5.0 4.7 5.0 5.3 5.3 4.7 4.5 4.8 4.9 4.8 4.4 5.0
7.2 7.3 7.0 6.5 6.5 5.9 5.7 5.4 5.3 5.3 5.2 5.1 4.9 4.9 4.9 4.9 5.0 4.9 4.7 4.5 4.8 5.2 5.2 5.4 5.1 5.3 5.5 5.5 5.4 5.3 5.3 5.5 5.3 5.3 5.2 4.8 4.5 4.6 4.8 4.8 4.4 4.1 3.8 4.4 4.6 5.0 4.6
8.1 8.0 7.8 7.1 6.4 6.4 6.4 5.2 5.2 5.6 5.1 5.3 4.9 5.1 5.0 4.8 4.8 5.0 4.8 5.0 5.1 5.0 4.7 5.0 5.0 4.8 4.4 4.6 5.1 5.4 5.4 5.2 5.1 4.8 4.8 4.6 4.3 4.4 4.2 4.5 4.2 3.8 3.6 4.6 4.8 5.0 4.7
8.5 8.4 8.1 7.7 7.3 6.5 6.2 6.0 5.8 5.6 5.4 4.8 5.1 5.0 4.8 5.0 5.0 4.8 4.7 5.1 4.8 4.5 4.5 4.7 4.8 4.7 4.6 4.5 4.0 4.4 4.4 4.8 4.5 4.6 4.6 4.4 4.5 4.3 3.6 3.8 3.9 3.1 4.6 4.9 5.0 5.1 5.0
8.3 8.5 8.3 8.0 7.7 7.4 6.4 6.2 6.3 5.7 5.2 5.2 4.6 5.2 5.4 5.2 5.1 5.0 5.0 4.9 5.0 5.0 4.6 4.7 4.8 4.7 4.5 4.3 4.3 4.2 3.9 4.3 4.3 4.3 4.4 4.3 4.3 4.1 3.6 3.0 1.6 3.8 3.9 4.8 5.1 5.1 5.1
8.1 8.4 8.4 8.1 7.9 7.6 7.0 6.3 6.3 6.2 5.8 5.8 5.1 4.7 5.5 5.6 4.9 4.9 5.1 5.0 5.0 5.0 4.9 5.1 4.9 4.8 4.5 4.2 4.1 4.0 3.9 3.8 3.9 4.3 4.2 4.1 3.9 3.9 3.8 2.9 3.8 3.7 4.2 4.6 4.9 4.8 5.2
8.1 8.4 8.3 8.4 8.0 7.8 7.4 6.8 6.5 6.4 5.9 5.6 5.6 5.0 4.9 4.9 5.3 5.0 5.0 5.0 5.0 5.1 5.1 5.1 5.0 5.0 4.9 4.5 4.3 4.3 4.4 4.1 4.1 4.0 4.4 3.9 3.8 3.6 3.5 3.3 2.6 3.7 4.4 4.8 4.8 4.3 4.9
8.1 8.3 8.3 8.3 8.2 7.9 7.5 7.0 6.5 6.5 6.0 5.7 5.6 5.5 5.5 5.1 5.0 4.9 5.0 5.3 5.0 5.2 5.2 5.2 5.0 4.9 4.8 4.3 4.1 3.8 4.0 4.0 4.4 4.1 4.4 4.2 2.8 3.4 3.4 3.1 3.4 4.2 4.5 4.4 4.2 4.4 4.3
8.2 8.2 8.3 8.3 8.2 8.0 7.7 7.3 7.0 6.8 6.5 5.8 5.8 5.3 5.1 5.3 5.0 4.8 5.4 5.1 5.5 5.4 5.4 5.5 5.1 4.8 4.7 4.5 4.2 4.2 4.1 4.1 4.3 4.0 4.3 4.9 4.3 3.4 2.8 2.9 3.2 4.7 4.5 4.5 4.5 4.3 4.1
8.1 8.1 8.2 8.2 8.2 7.9 7.8 7.6 7.4 7.0 7.0 6.3 5.9 5.8 5.8 5.1 5.1 5.1 5.1 5.0 5.1 5.4 5.2 5.0 5.1 5.1 5.0 4.9 4.7 4.5 4.6 4.5 4.3 4.4 4.4 4.2 4.3 4.4 4.5 4.6 4.6 4.3 4.1 4.0 4.2 4.2 4.1
Wind_Speed
7 8 9 10 11 12 13 14 15 15 15 16 16 15 15 14 13 13 13 12 11 10 9 8 8 9 2 4 1 5 12 11 6 5 4 3 4 2 4 3 3 5 3 6 6 9 8
5 6 7 7 9 10 12 13 13 14 15 16 17 17 16 16 16 14 13 12 11 10 9 8 8 8 0 1 2 7 10 6 4 4 4 5 2 2 4 3 4 3 6 7 3 5 5
3 4 5 6 7 9 11 12 13 14 15 16 17 17 17 18 18 16 14 12 10 9 8 8 7 3 5 2 2 9 7 3 4 1 1 1 1 2 2 5 6 7 5 2 2 3 4
1 1 4 5 6 8 8 10 12 13 14 15 17 18 18 18 20 18 15 13 9 9 9 7 6 2 1 2 4 4 6 2 5 2 1 2 2 4 3 3 4 4 4 2 2 5 2
5 3 1 5 7 7 8 8 11 12 13 14 16 19 19 19 20 21 18 14 9 8 9 8 1 2 0 2 2 4 2 3 5 3 2 2 3 3 4 5 4 4 2 3 2 7 4
7 7 5 2 6 8 8 9 9 11 12 14 15 17 20 20 21 21 22 8 7 9 2 2 1 3 1 1 2 3 3 3 2 2 4 4 5 3 3 4 5 5 3 3 4 6 5
10 8 7 6 3 7 10 9 11 10 12 13 14 15 17 20 20 19 11 3 4 3 6 1 1 1 1 2 1 3 3 4 1 5 3 3 4 4 7 5 4 3 4 4 3 5 5
12 11 9 8 6 4 7 10 11 12 12 13 13 15 16 18 20 18 1 3 1 2 2 1 1 1 1 2 1 3 5 1 1 3 3 5 3 4 3 4 3 3 3 3 1 3 4
15 14 11 11 8 7 6 6 10 12 13 14 14 15 16 16 16 4 3 2 4 3 1 2 2 2 2 2 2 2 3 0 2 3 4 5 1 2 2 1 3 1 4 3 2 1 1
17 17 14 13 12 9 8 7 5 9 12 14 15 16 16 21 4 2 2 4 3 1 4 3 2 2 1 2 1 1 0 1 0 6 6 2 1 3 2 3 4 2 4 2 3 3 4
19 19 17 16 15 13 10 8 8 5 9 13 15 16 15 6 3 2 2 5 4 2 3 1 2 0 1 3 3 1 0 1 3 4 5 4 5 3 3 3 1 4 2 2 1 2 4
20 19 19 18 16 16 13 11 8 7 6 9 13 15 16 4 2 2 1 2 3 5 6 2 3 2 2 1 1 1 2 2 1 2 2 1 1 1 1 2 2 4 4 6 4 3 1
19 19 19 19 18 17 16 13 10 7 7 6 10 13 9 2 2 3 3 3 5 4 0 4 4 3 2 4 1 3 2 1 4 4 3 2 1 1 1 2 4 3 4 3 4 2 5
15 18 20 20 20 18 18 15 12 8 5 7 9 11 4 3 5 6 3 4 3 4 6 2 4 3 5 5 2 3 2 2 3 3 2 5 4 3 2 1 3 3 5 4 5 3 4
15 13 15 20 22 20 19 18 15 10 4 5 10 1 2 3 6 2 5 3 8 7 4 8 3 3 3 3 3 3 6 4 3 6 7 4 2 1 3 2 1 2 2 1 1 1 2
13 16 15 12 16 21 22 21 16 11 5 2 1 2 3 8 8 4 4 7 6 4 4 3 9 5 7 6 6 5 7 2 5 2 2 4 1 1 1 2 2 3 3 3 2 3 5
11 11 12 13 15 17 19 20 18 15 11 6 1 0 1 5 3 3 4 8 6 4 5 7 8 6 6 7 8 5 6 2 5 5 2 4 3 1 1 5 7 2 2 1 2 4 4
18 17 12 14 16 16 16 21 20 20 17 7 1 3 1 1 2 2 4 7 4 6 2 3 3 5 9 8 8 6 9 2 4 6 7 5 4 5 7 1 1 1 4 5 4 4 4
15 16 17 13 13 5 7 13 22 23 15 5 5 1 2 1 4 4 4 4 4 5 6 7 8 5 4 8 4 6 4 1 1 5 7 6 2 1 4 2 1 4 5 4 4 3 7
14 13 15 13 13 8 7 7 22 21 17 4 4 2 1 2 2 3 4 6 6 2 3 3 4 4 3 5 3 6 5 3 3 3 5 3 3 6 7 4 5 5 6 6 6 4 6
14 13 13 12 13 12 8 14 25 24 17 2 2 3 3 3 3 6 8 6 4 6 2 1 1 6 7 6 5 6 4 3 0 4 4 5 6 3 4 5 3 5 5 8 10 11 10
16 13 11 10 10 12 10 16 27 25 11 2 4 4 2 2 2 2 9 4 7 1 5 5 5 3 4 5 7 9 8 5 5 2 5 0 2 3 3 4 5 6 9 12 13 12 8
17 14 11 10 7 7 9 14 26 27 18 2 1 1 1 4 3 5 4 6 3 3 2 3 3 2 7 4 4 3 4 4 7 9 7 6 5 3 3 3 6 8 13 16 3 1 3
19 18 14 11 8 6 5 6 26 29 12 3 3 1 3 3 4 5 6 2 6 5 3 2 3 5 1 9 7 5 9 9 8 6 2 6 6 3 2 2 3 4 2 3 3 2 2
16 12 14 13 11 6 5 5 21 29 17 3 3 3 2 2 2 3 7 5 4 1 3 1 3 4 4 3 3 3 2 2 1 4 4 2 4 3 3 3 7 1 4 5 5 5 6
14 13 11 11 11 12 9 7 7 28 20 2 2 2 3 1 5 2 3 4 3 2 1 1 1 4 3 3 3 5 6 4 4 1 4 3 4 3 3 3 6 4 3 3 3 4 6
14 16 18 15 14 15 12 11 11 18 22 4 1 2 2 3 1 1 3 3 4 3 2 3 5 2 3 3 4 4 3 3 5 7 5 3 1 8 5 4 7 3 5 4 5 4 6
16 16 16 18 18 15 14 15 15 15 24 5 2 3 1 2 2 2 2 3 2 3 4 4 3 2 2 3 4 3 3 3 2 4 6 7 7 4 4 4 9 6 5 6 3 3 5
18 19 18 18 19 20 20 19 18 16 26 12 2 2 6 4 3 3 4 5 3 4 2 5 2 3 4 3 3 1 3 2 2 3 1 4 4 5 8 5 1 10 2 3 4 6 5
Wind_Direction
47 49 44 31 23 15 11 9 2 357 355 350 351 351 348 342 342 346 341 337 330 326 323 330 335 337 300 43 236 302 332 338 350 1 45 12 46 20 100 85 69 85 127 56 88 79 72
59 37 35 36 26 16 11 9 1 357 356 351 350 348 345 338 339 338 337 336 328 319 316 325 333 334 237 200 308 310 335 338 13 35 18 38 97 348 96 74 81 99 98 131 60 87 97
83 35 21 17 23 20 12 5 1 357 355 354 346 345 344 337 333 331 334 328 320 313 312 320 334 342 54 145 302 324 341 294 337 35 83 50 298 131 112 98 149 138 89 72 151 159 137
163 62 358 358 7 9 14 6 1 359 356 351 346 343 342 337 330 326 329 316 309 303 307 309 326 62 105 299 321 340 343 351 351 347 124 265 313 96 85 128 64 81 65 96 217 155 158
230 292 332 339 341 351 354 8 3 356 353 350 349 343 339 336 330 327 324 314 300 297 292 297 291 98 246 312 1 308 345 331 307 310 326 316 52 89 45 89 36 9 193 195 298 203 138
229 264 254 283 323 331 340 346 2 353 351 351 348 345 337 335 331 330 321 299 306 320 272 261 304 40 316 262 295 334 311 343 357 345 22 49 47 72 43 84 202 188 202 219 215 204 170
248 227 252 259 276 315 325 336 338 352 348 348 346 343 339 334 334 337 345 12 17 326 39 215 202 175 98 315 44 359 7 353 14 45 120 22 83 198 212 190 172 148 186 199 237 184 143
250 245 226 239 265 272 306 320 329 338 344 342 342 340 341 336 334 332 2 82 146 258 308 230 179 83 121 123 33 323 4 83 114 157 113 33 210 208 162 166 169 185 199 262 326 133 162
240 240 233 234 240 262 271 296 320 329 335 336 339 339 338 336 334 36 60 128 324 318 146 247 213 194 204 127 173 280 357 58 179 143 169 156 228 146 180 185 168 107 172 201 203 67 310
238 240 228 227 228 240 256 277 294 318 329 331 337 337 337 332 68 320 39 312 329 307 51 240 236 245 120 109 272 219 123 179 121 184 156 204 149 163 160 191 141 203 180 157 146 104 233
242 241 238 233 221 225 241 256 280 299 319 329 333 334 335 340 174 90 241 311 316 48 0 161 176 12 109 163 148 253 351 54 182 179 107 251 161 165 180 206 186 218 112 101 115 120 23
240 241 242 242 237 229 221 243 254 279 302 321 329 333 337 46 58 152 312 354 38 48 257 192 136 163 118 244 236 96 39 45 45 85 44 109 13 72 201 74 45 134 88 39 52 94 305
244 246 242 243 240 236 233 221 239 250 280 309 326 330 325 290 204 145 94 50 46 149 307 198 201 161 196 199 228 173 174 196 167 93 230 6 228 27 78 107 16 90 69 321 338 354 232
281 256 252 246 241 237 235 227 222 236 260 307 319 319 278 262 168 140 71 61 207 230 204 137 137 132 182 157 230 171 116 267 230 111 122 170 304 158 23 69 194 171 156 167 254 232 277
330 348 271 250 241 234 231 228 220 214 224 310 321 4 266 226 174 77 84 122 211 208 162 147 80 159 222 198 200 157 200 209 194 178 182 158 262 25 57 35 85 180 193 173 72 54 24
320 316 310 329 277 238 226 219 209 193 164 21 56 347 243 152 151 59 92 224 216 200 143 141 184 167 191 196 167 184 191 190 175 164 184 192 162 248 215 140 56 167 162 72 6 257 260
305 306 307 306 292 266 246 220 201 166 139 98 6 31 298 127 77 69 195 226 218 198 181 169 194 171 208 181 182 204 208 196 180 163 152 151 126 202 100 204 182 125 212 94 125 169 208
304 304 299 311 308 277 253 231 187 155 134 99 78 236 181 157 149 234 197 201 174 184 180 199 163 177 183 172 180 214 207 231 181 158 166 185 143 195 206 92 42 232 216 157 141 239 249
300 307 309 311 324 328 283 253 168 160 154 128 142 259 7 90 202 225 265 251 217 157 202 188 203 196 203 178 192 186 179 124 142 162 161 180 191 57 322 15 67 204 199 164 124 101 209
287 287 298 311 303 301 284 260 164 164 162 100 126 164 313 345 319 293 215 224 215 214 211 177 167 130 139 197 231 179 162 202 162 136 130 118 174 196 198 176 134 192 205 183 153 154 231
278 285 286 296 300 301 298 171 164 165 178 85 163 191 156 193 259 256 316 326 192 196 219 169 285 227 178 176 177 194 133 141 40 177 145 148 207 189 265 237 238 216 198 196 199 220 208
267 272 280 286 296 297 308 190 172 164 162 14 143 148 171 184 169 353 203 239 242 148 140 223 217 263 213 195 194 191 144 186 185 143 159 170 201 123 284 283 221 246 230 237 229 236 259
288 255 255 264 282 305 293 191 171 169 147 94 281 13 179 149 155 147 199 232 298 82 243 277 274 127 226 242 68 40 71 87 139 149 165 154 142 113 258 360 326 284 217 224 190 55 169
276 255 244 253 259 276 307 234 181 179 174 123 174 193 140 212 203 190 179 200 263 184 239 2 1 199 167 117 108 61 49 63 68 45 109 146 138 136 230 30 237 243 177 167 152 226 208
264 258 240 247 251 247 261 262 209 193 187 117 167 164 160 196 203 200 207 178 141 97 161 111 1 346 301 34 66 48 357 35 45 27 28 28 138 154 185 210 311 296 204 178 164 255 194
273 275 266 247 263 235 232 246 247 205 195 96 158 163 153 178 211 79 153 167 164 132 117 152 199 326 329 87 138 187 195 186 207 126 3 83 61 146 138 209 244 241 185 138 124 299 177
263 269 264 258 267 240 224 229 236 213 184 128 73 8 138 164 182 301 169 185 161 146 104 119 154 151 56 201 207 203 234 158 181 176 171 138 133 209 199 224 283 188 148 162 90 249 152
266 269 264 260 253 233 227 227 229 216 177 139 93 24 122 106 87 40 334 132 138 169 154 137 115 160 68 184 203 219 201 216 153 141 176 168 152 182 152 202 264 143 81 172 185 68 131
258 256 253 248 243 238 233 226 218 212 168 130 109 71 67 72 87 24 56 46 13 355 111 184 9 139 151 163 200 172 202 156 134 224 215 195 186 177 189 206 141 176 99 130 144 141 158